Allentown, PA

5:18 AM EST on December 14, 2017 (GMT -0500)
Lehigh Valley International

Weather History for KABE - February, 2014

Change the Weather History Date:

Tuesday, February 4, 2014

  Actual Average Record
Temperature  
Mean Temperature 19 °F 29 °F  
Max Temperature 34 °F 37 °F 65 °F (1991)
Min Temperature 4 °F 20 °F -1 °F (1985)
Degree Days  
Heating Degree Days 46 36  
Month to date heating degree days 147 146  
Since 1 July heating degree days 3636 3496  
Cooling Degree Days 0 0  
Month to date cooling degree days 0 0  
Year to date cooling degree days 0 0  
Moisture  
Dew Point 13 °F    
Average Humidity 74    
Maximum Humidity 100    
Minimum Humidity 47    
Precipitation  
Precipitation T in 0.10 in 1.24 in (1952)
Month to date precipitation 0.88 0.40  
Year to date precipitation 5.42 3.43  
Snow  
Snow T in 0.40 in 10.00 in (1961)
Month to date snowfall 9.3 1.7  
Since 1 July snowfall 39.5 17.6  
Snow Depth 9.00 in    
Sea Level Pressure  
Sea Level Pressure 30.39 in    
Wind  
Wind Speed 2 mph (North)    
Max Wind Speed 12 mph    
Max Gust Speed 14 mph    
Visibility 8 miles    
Events      
T = Trace of Precipitation, MM = Missing Value Source: NWS Daily Summary

Daily Weather History Graph

Daily Weather History Graph

Search for Another Location

Airport or City:

Trip Planner

Search our weather history database for the weather conditions in past years. The results will help you decide how hot, cold, wet, or windy it might be!

Date:

Astronomy

Feb. 04, 2014 Rise Set
Actual Time 7:08 AM EST 5:23 PM EST
Civil Twilight 6:39 AM EST 5:52 PM EST
Nautical Twilight 6:07 AM EST 6:24 PM EST
Astronomical Twilight 5:35 AM EST 6:56 PM EST
Moon 9:43 AM EST (2/4) 11:17 PM EST (2/4)
Length of Visible Light 11h 12m
Length of Day
10h 14m
Waxing Crescent, 29% of the Moon is Illuminated
Feb 4
Waxing Crescent
Feb 6
First Quarter
Feb 14
Full
Feb 22
Last Quarter
Mar 1
New

Hourly Weather History & Observations

Time (EST) Temp. Windchill Dew Point Humidity Pressure Visibility Wind Dir Wind Speed Gust Speed Precip Events Conditions
12:51 AM 19.9 °F 14.9 °F 16.0 °F 85% 30.37 in 10.0 mi NNW 3.5 mph - N/A   Clear
1:51 AM 19.0 °F 13.9 °F 14.0 °F 81% 30.39 in 10.0 mi WNW 3.5 mph - N/A   Clear
2:51 AM 16.0 °F - 12.9 °F 88% 30.40 in 8.0 mi Calm Calm - N/A   Clear
3:24 AM 8.6 °F - 6.8 °F 92% 30.38 in 1.8 mi Calm Calm - N/A   Clear
3:39 AM 6.8 °F -0.1 °F 3.2 °F 85% 30.38 in 10.0 mi NW 3.5 mph - N/A   Clear
3:51 AM 7.0 °F - 3.9 °F 87% 30.41 in 3.0 mi Calm Calm - N/A   Clear
3:58 AM 10.4 °F 4.0 °F 6.8 °F 85% 30.39 in 2.5 mi NW 3.5 mph - N/A   Clear
4:05 AM 14.0 °F 8.2 °F 10.4 °F 86% 30.39 in 8.0 mi NW 3.5 mph - N/A   Clear
4:51 AM 9.0 °F - 5.0 °F 84% 30.42 in 5.0 mi Calm Calm - N/A   Clear
5:51 AM 9.0 °F 0.6 °F 5.0 °F 84% 30.43 in 5.0 mi NNW 4.6 mph - N/A   Clear
6:51 AM 9.0 °F - 3.9 °F 80% 30.44 in 10.0 mi Calm Calm - N/A   Clear
7:51 AM 7.0 °F - 3.9 °F 87% 30.47 in 5.0 mi Calm Calm - N/A   Clear
8:51 AM 10.9 °F - 10.0 °F 96% 30.49 in 5.0 mi Calm Calm - N/A   Clear
9:51 AM 16.0 °F - 14.0 °F 92% 30.49 in 6.0 mi Calm Calm - N/A   Clear
10:51 AM 21.9 °F - 16.0 °F 78% 30.49 in 7.0 mi Calm Calm - N/A   Clear
11:51 AM 25.0 °F - 14.0 °F 63% 30.46 in 10.0 mi Calm Calm - N/A   Clear
12:51 PM 25.0 °F 20.7 °F 15.1 °F 66% 30.45 in 10.0 mi WNW 3.5 mph - N/A   Clear
1:51 PM 34.0 °F - 15.1 °F 46% 30.43 in 10.0 mi Calm Calm - N/A   Clear
2:51 PM 30.0 °F - 16.0 °F 56% 30.38 in 10.0 mi Calm Calm - 0.00 in   Clear
3:51 PM 30.0 °F - 18.0 °F 61% 30.38 in 10.0 mi Calm Calm - N/A   Clear
4:51 PM 27.0 °F 23.0 °F 17.1 °F 66% 30.38 in 10.0 mi NNW 3.5 mph - N/A   Clear
5:51 PM 25.0 °F - 17.1 °F 72% 30.39 in 10.0 mi Calm Calm - N/A   Clear
6:51 PM 24.1 °F - 17.1 °F 75% 30.37 in 10.0 mi Calm Calm - N/A   Clear
7:51 PM 24.1 °F - 18.0 °F 77% 30.37 in 9.0 mi Calm Calm - N/A   Clear
8:51 PM 26.1 °F 21.9 °F 19.9 °F 78% 30.35 in 8.0 mi North 3.5 mph - N/A   Overcast
9:51 PM 27.0 °F 20.5 °F 19.9 °F 75% 30.32 in 9.0 mi ENE 5.8 mph - N/A   Overcast
10:51 PM 28.0 °F 22.8 °F 19.9 °F 72% 30.28 in 10.0 mi ENE 4.6 mph - N/A   Overcast
11:26 PM 28.4 °F 20.4 °F 21.2 °F 74% 30.22 in 10.0 mi East 8.1 mph - N/A   Overcast
11:51 PM 28.0 °F 24.2 °F 21.0 °F 75% 30.26 in 9.0 mi NE 3.5 mph - N/A   Overcast